FW7023 Weather Reports


Display with metric or nautical units.
time (UTC)temp
F
wind
direction
speed
MPH
gust
MPH
rain 1hr
in
rain 24hr
in
rain mn
in
humidity
%
barometer
mb
20200713142403 80 203 0.0 1.0 0.00 0.00 0.00 68 1014.4
20200713141902 79 326 0.0 0.0 0.00 0.00 0.00 70 1014.5
20200713141357 78 194 3.0 5.0 0.00 0.00 0.00 71 1014.6
20200713140848 77 220 0.0 0.0 0.00 0.00 0.00 72 1014.8
20200713140347 77 213 0.0 0.0 0.00 0.00 0.00 72 1014.4
20200713135841 77 227 1.0 2.0 0.00 0.00 0.00 72 1014.6
20200713135337 77 252 0.0 0.0 0.00 0.00 0.00 72 1014.9
20200713134832 77 167 0.0 1.0 0.00 0.00 0.00 70 1014.3
20200713134327 77 198 3.0 3.0 0.00 0.00 0.00 69 1014.5
20200713133827 77 226 1.0 2.0 0.00 0.00 0.00 72 1014.8
20200713133325 76 207 2.0 3.0 0.00 0.00 0.00 74 1014.8
20200713132821 75 190 1.0 1.0 0.00 0.00 0.00 76 1014.8
20200713132319 74 221 1.0 1.0 0.00 0.00 0.00 78 1014.8
20200713131814 73 206 0.0 1.0 0.00 0.00 0.00 80 1014.8
20200713131311 73 200 0.0 0.0 0.00 0.00 0.00 81 1014.8
20200713130810 73 225 1.0 2.0 0.00 0.00 0.00 82 1014.5
20200713130308 72 197 1.0 1.0 0.00 0.00 0.00 85 1014.4
20200713125803 70 225 0.0 0.0 0.00 0.00 0.00 90 1014.3
20200713125300 69 224 0.0 0.0 0.00 0.00 0.00 93 1014.0
20200713124800 68 228 0.0 0.0 0.00 0.00 0.00 94 1014.3
20200713124302 68 228 0.0 0.0 0.00 0.00 0.00 94 1014.2
20200713123833 67 228 0.0 0.0 0.00 0.00 0.00 95 1014.2
20200713123254 67 228 0.0 0.0 0.00 0.00 0.00 95 1014.2
20200713122753 67 228 0.0 0.0 0.00 0.00 0.00 95 1014.1
20200713122249 67 228 0.0 0.0 0.00 0.00 0.00 95 1014.3
20200713121745 67 228 0.0 0.0 0.00 0.00 0.00 95 1014.4
20200713121243 67 228 0.0 0.0 0.00 0.00 0.00 95 1014.3
20200713120741 66 228 0.0 0.0 0.00 0.00 0.00 95 1014.2
20200713120242 66 229 0.0 0.0 0.00 0.00 0.00 95 1014.2
20200713115739 66 227 0.0 0.0 0.00 0.00 0.00 96 1014.5
20200713115238 66 244 0.0 1.0 0.00 0.00 0.00 96 1014.5
20200713114733 66 213 0.0 0.0 0.00 0.00 0.00 96 1014.5
20200713114229 66 226 0.0 0.0 0.00 0.00 0.00 96 1014.4
20200713113728 66 206 0.0 0.0 0.00 0.00 0.00 97 1014.1
20200713113227 66 211 0.0 0.0 0.00 0.00 0.00 97 1014.2
20200713112723 65 211 0.0 0.0 0.00 0.00 0.00 96 1014.0
20200713112219 65 211 0.0 0.0 0.00 0.00 0.00 96 1013.6
20200713111715 65 209 0.0 0.0 0.00 0.00 0.00 96 1013.8
20200713111209 65 210 0.0 0.0 0.00 0.00 0.00 96 1013.6
20200713110704 65 210 0.0 0.0 0.00 0.00 0.00 96 1013.8
20200713110204 65 202 0.0 0.0 0.00 0.00 0.00 96 1013.9
20200713105659 66 208 0.0 0.0 0.00 0.00 0.00 96 1013.8
20200713105156 66 221 0.0 0.0 0.00 0.00 0.00 96 1013.9
20200713104657 66 216 0.0 0.0 0.00 0.00 0.00 96 1013.9
20200713104155 65 217 0.0 0.0 0.00 0.00 0.00 96 1013.9
20200713103650 65 217 0.0 0.0 0.00 0.00 0.00 96 1014.1
20200713103154 65 220 0.0 0.0 0.00 0.00 0.00 96 1014.0
20200713102645 65 220 0.0 0.0 0.00 0.00 0.00 96 1014.1
20200713102142 66 216 0.0 0.0 0.00 0.00 0.00 96 1014.0
20200713101638 66 217 0.0 0.0 0.00 0.00 0.00 96 1013.9
20200713101134 66 212 0.0 0.0 0.00 0.00 0.00 96 1013.9
20200713100633 66 208 0.0 0.0 0.00 0.00 0.00 96 1013.8
20200713100131 66 219 0.0 0.0 0.00 0.00 0.00 96 1013.9
20200713095628 66 219 0.0 0.0 0.00 0.00 0.00 96 1013.8
20200713095124 66 209 0.0 0.0 0.00 0.00 0.00 96 1013.8
20200713094619 66 212 0.0 0.0 0.00 0.00 0.00 96 1013.6
20200713094118 66 214 0.0 0.0 0.00 0.00 0.00 96 1013.7
20200713093615 66 214 0.0 0.0 0.00 0.00 0.00 96 1013.9
20200713093116 66 210 0.0 0.0 0.00 0.00 0.00 96 1014.0
20200713092610 66 213 0.0 0.0 0.00 0.00 0.00 96 1013.9
20200713092108 66 217 0.0 0.0 0.00 0.00 0.00 95 1013.8
20200713091608 66 216 0.0 0.0 0.00 0.00 0.00 95 1013.8
20200713091101 66 220 0.0 0.0 0.00 0.00 0.00 95 1014.0
20200713090602 66 220 0.0 0.0 0.00 0.00 0.00 95 1014.0
20200713090104 66 225 0.0 0.0 0.00 0.00 0.00 95 1013.7
20200713085555 66 225 0.0 0.0 0.00 0.00 0.00 95 1013.9
20200713085051 66 225 0.0 0.0 0.00 0.00 0.00 95 1013.9
20200713084549 66 225 0.0 0.0 0.00 0.00 0.00 95 1014.2
20200713084045 66 225 0.0 0.0 0.00 0.00 0.00 95 1014.0
20200713083540 67 208 0.0 0.0 0.00 0.00 0.00 95 1014.1
20200713083038 67 206 0.0 0.0 0.00 0.00 0.00 95 1013.9
20200713082535 67 206 0.0 0.0 0.00 0.00 0.00 95 1013.6
20200713082031 67 205 0.0 0.0 0.00 0.00 0.00 95 1013.6
20200713081527 67 215 0.0 0.0 0.00 0.00 0.00 95 1013.2
20200713081021 67 207 0.0 0.0 0.00 0.00 0.00 95 1013.3
20200713080521 67 204 0.0 0.0 0.00 0.00 0.00 95 1013.1
20200713080026 67 213 0.0 0.0 0.00 0.00 0.00 95 1013.1
20200713075516 67 213 0.0 0.0 0.00 0.00 0.00 95 1013.4
20200713075013 67 215 0.0 0.0 0.00 0.00 0.00 94 1013.2
20200713074515 67 215 0.0 0.0 0.00 0.00 0.00 94 1013.1
20200713074007 67 210 0.0 0.0 0.00 0.00 0.00 94 1013.1
20200713073506 67 210 0.0 0.0 0.00 0.00 0.00 94 1013.1
20200713072959 67 215 0.0 0.0 0.00 0.00 0.00 94 1013.2
20200713072456 67 215 0.0 0.0 0.00 0.00 0.00 93 1013.2
20200713071953 67 215 0.0 0.0 0.00 0.00 0.00 93 1013.2
20200713071453 67 219 0.0 0.0 0.00 0.00 0.00 93 1012.9
20200713070948 68 214 0.0 0.0 0.00 0.00 0.00 93 1013.0
20200713070444 68 213 0.0 0.0 0.00 0.00 0.00 92 1013.5
20200713065944 68 215 0.0 0.0 0.00 0.00 0.00 92 1013.4
20200713065444 68 219 0.0 0.0 0.00 0.00 0.00 92 1013.5
20200713064941 68 235 0.0 0.0 0.00 0.00 0.00 92 1013.8
20200713064437 68 223 0.0 0.0 0.00 0.00 0.00 92 1014.1
20200713063931 68 214 0.0 0.0 0.00 0.00 0.00 91 1014.0
20200713063427 68 220 0.0 0.0 0.00 0.00 0.00 91 1014.0
20200713062926 68 212 0.0 0.0 0.00 0.00 0.00 91 1013.9
20200713062422 68 212 0.0 0.0 0.00 0.00 0.00 91 1014.1
20200713061919 69 213 0.0 0.0 0.00 0.00 0.00 91 1013.9
20200713061418 69 212 0.0 0.0 0.00 0.00 0.00 90 1014.0
20200713060916 69 215 0.0 0.0 0.00 0.00 0.00 91 1014.2
20200713060410 69 206 0.0 0.0 0.00 0.00 0.00 91 1013.9
20200713055908 69 216 0.0 0.0 0.00 0.00 0.00 91 1014.0
20200713055407 69 217 0.0 0.0 0.00 0.00 0.00 91 1014.2
20200713054903 69 211 0.0 0.0 0.00 0.00 0.00 90 1014.2
20200713054402 69 211 0.0 0.0 0.00 0.00 0.00 90 1014.3
20200713053857 69 211 0.0 0.0 0.00 0.00 0.00 90 1014.4
20200713053353 69 219 0.0 0.0 0.00 0.00 0.00 89 1014.5
20200713052855 69 207 0.0 0.0 0.00 0.00 0.00 89 1014.6
20200713052347 69 201 0.0 0.0 0.00 0.00 0.00 89 1014.5
20200713051842 70 210 0.0 0.0 0.00 0.00 0.00 89 1014.5
20200713051341 70 209 0.0 0.0 0.00 0.00 0.00 88 1014.3
20200713050838 70 216 0.0 0.0 0.00 0.00 0.00 88 1014.1
20200713050336 70 209 0.0 0.0 0.00 0.00 0.00 87 1014.0
20200713045835 70 216 0.0 0.0 0.00 0.00 0.00 87 1013.8
20200713045333 70 225 0.0 0.0 0.00 0.00 0.00 86 1013.8
20200713044829 70 221 0.0 0.0 0.00 0.00 0.00 86 1013.7
20200713044325 70 208 0.0 0.0 0.00 0.00 0.00 86 1013.5
20200713043820 71 223 0.0 0.0 0.00 0.00 0.00 85 1013.4
20200713043318 71 213 0.0 0.0 0.00 0.00 0.00 85 1013.6
20200713042813 71 206 0.0 0.0 0.00 0.00 0.00 84 1013.6
20200713042310 71 211 0.0 0.0 0.00 0.00 0.00 84 1013.8
20200713041803 71 215 0.0 0.0 0.00 0.00 0.00 84 1013.5
20200713041305 71 206 0.0 0.0 0.00 0.00 0.00 83 1013.2
20200713040758 71 216 0.0 0.0 0.00 0.00 0.00 82 1013.5
20200713040258 72 207 0.0 0.0 0.00 0.00 0.00 82 1013.9
20200713035757 72 209 0.0 0.0 0.00 0.00 0.00 81 1013.6
20200713035253 72 211 0.0 0.0 0.00 0.00 0.00 81 1013.4
20200713034748 72 209 0.0 0.0 0.00 0.00 0.00 81 1013.5
20200713034247 73 214 0.0 0.0 0.00 0.00 0.00 80 1013.7
20200713033746 73 208 0.0 0.0 0.00 0.00 0.00 79 1013.9
20200713033245 73 213 0.0 0.0 0.00 0.00 0.00 78 1014.0
20200713032746 73 209 0.0 0.0 0.00 0.00 0.00 78 1013.8
20200713032240 73 212 0.0 0.0 0.00 0.00 0.00 77 1013.7
20200713031735 73 206 0.0 0.0 0.00 0.00 0.00 77 1013.6
20200713031233 74 209 0.0 0.0 0.00 0.00 0.00 77 1013.5
20200713030730 74 206 0.0 0.0 0.00 0.00 0.00 76 1013.7
20200713030226 74 208 0.0 0.0 0.00 0.00 0.00 76 1013.4
20200713025724 74 209 0.0 0.0 0.00 0.00 0.00 76 1013.2
20200713025218 74 206 0.0 0.0 0.00 0.00 0.00 75 1013.2
20200713024717 74 212 0.0 0.0 0.00 0.00 0.00 75 1013.0
20200713024213 75 216 0.0 0.0 0.00 0.00 0.00 75 1012.8
20200713023709 75 200 0.0 0.0 0.00 0.00 0.00 74 1013.1
20200713023205 75 212 0.0 0.0 0.00 0.00 0.00 73 1012.8
20200713022705 75 219 0.0 1.0 0.00 0.00 0.00 73 1013.0
20200713022200 76 212 0.0 0.0 0.00 0.00 0.00 72 1012.7
20200713021658 76 213 0.0 0.0 0.00 0.00 0.00 72 1012.6
20200713021157 76 226 0.0 0.0 0.00 0.00 0.00 72 1012.4
20200713020648 77 212 0.0 0.0 0.00 0.00 0.00 72 1012.4
20200713020145 77 209 0.0 0.0 0.00 0.00 0.00 71 1012.4
20200713015644 78 210 0.0 0.0 0.00 0.00 0.00 71 1012.1
20200713015142 78 220 0.0 0.0 0.00 0.00 0.00 69 1011.9
20200713014637 78 209 0.0 0.0 0.00 0.00 0.00 68 1011.8
20200713014135 79 215 0.0 0.0 0.00 0.00 0.00 67 1011.9
20200713013634 79 187 0.0 0.0 0.00 0.00 0.00 66 1011.7
20200713013132 80 197 0.0 0.0 0.00 0.00 0.00 64 1011.9
20200713012632 79 249 0.0 0.0 0.00 0.00 0.00 64 1012.0
20200713012128 79 209 0.0 0.0 0.00 0.00 0.00 66 1011.9
20200713011626 80 204 0.0 0.0 0.00 0.00 0.00 67 1012.1
20200713011123 80 202 1.0 1.0 0.00 0.00 0.00 65 1012.3
20200713010618 80 210 0.0 1.0 0.00 0.00 0.00 64 1012.5
20200713010113 81 196 2.0 2.0 0.00 0.00 0.00 62 1012.6
20200713005609 82 210 0.0 0.0 0.00 0.00 0.00 57 1012.6
20200713005106 83 199 1.0 1.0 0.00 0.00 0.00 58 1012.6
20200713004600 83 211 0.0 0.0 0.00 0.00 0.00 56 1012.8
20200713004058 84 201 0.0 0.0 0.00 0.00 0.00 53 1012.9
20200713003555 84 221 0.0 0.0 0.00 0.00 0.00 52 1012.7
20200713003050 84 212 0.0 0.0 0.00 0.00 0.00 52 1012.9
20200713002549 85 207 0.0 0.0 0.00 0.00 0.00 51 1012.6
20200713002044 85 223 0.0 0.0 0.00 0.00 0.00 50 1012.9
20200713001539 85 260 0.0 1.0 0.00 0.00 0.00 51 1012.8
20200713001038 85 239 0.0 0.0 0.00 0.00 0.00 51 1012.9
20200713000535 85 355 0.0 0.0 0.00 0.00 0.00 49 1012.7
20200713000030 86 11 2.0 2.0 0.00 0.00 0.00 49 1012.9
20200712235525 86 251 0.0 0.0 0.00 0.00 0.00 49 1012.9
20200712235017 86 211 1.0 1.0 0.00 0.00 0.00 49 1012.8
20200712234518 86 332 1.0 2.0 0.00 0.00 0.00 47 1012.7
20200712234011 86 337 1.0 2.0 0.00 0.00 0.00 47 1013.0
20200712233510 86 332 0.0 1.0 0.00 0.00 0.00 48 1013.0
20200712233005 86 341 0.0 0.0 0.00 0.00 0.00 48 1013.0
20200712232505 86 245 0.0 0.0 0.00 0.00 0.00 48 1013.1
20200712232002 85 216 1.0 1.0 0.00 0.00 0.00 50 1013.0
20200712231458 85 274 0.0 0.0 0.00 0.00 0.00 49 1013.3
20200712230954 85 282 1.0 1.0 0.00 0.00 0.00 49 1013.3
20200712230451 86 337 1.0 2.0 0.00 0.00 0.00 49 1013.1
20200712225947 87 229 0.0 1.0 0.00 0.00 0.00 49 1013.2
20200712225446 86 227 2.0 3.0 0.00 0.00 0.00 49 1013.4
20200712224944 86 294 1.0 1.0 0.00 0.00 0.00 48 1013.3
20200712224441 86 65 3.0 3.0 0.00 0.00 0.00 49 1013.3
20200712223936 86 349 1.0 2.0 0.00 0.00 0.00 48 1013.5
20200712223433 86 354 1.0 1.0 0.00 0.00 0.00 50 1013.3
20200712222930 86 225 0.0 0.0 0.00 0.00 0.00 50 1013.5
20200712222430 85 161 0.0 1.0 0.00 0.00 0.00 49 1013.5
20200712221927 86 348 0.0 1.0 0.00 0.00 0.00 48 1013.5
20200712221427 86 8 2.0 3.0 0.00 0.00 0.00 49 1013.5
20200712220924 85 338 1.0 1.0 0.00 0.00 0.00 49 1013.5
20200712220420 85 311 0.0 0.0 0.00 0.00 0.00 50 1013.5
20200712215915 85 219 1.0 2.0 0.00 0.00 0.00 50 1013.7
20200712215411 85 229 1.0 1.0 0.00 0.00 0.00 49 1013.9
20200712214909 85 345 3.0 3.0 0.00 0.00 0.00 50 1013.6
20200712214408 86 15 2.0 2.0 0.00 0.00 0.00 49 1013.5
20200712213901 86 12 2.0 2.0 0.00 0.00 0.00 48 1013.7
20200712213357 86 128 0.0 0.0 0.00 0.00 0.00 50 1013.8
20200712212857 85 316 0.0 1.0 0.00 0.00 0.00 51 1013.9
20200712212355 85 294 1.0 1.0 0.00 0.00 0.00 51 1013.7
20200712211854 85 355 1.0 2.0 0.00 0.00 0.00 51 1013.6
20200712211348 85 356 4.0 5.0 0.00 0.00 0.00 50 1013.7
20200712210845 85 313 2.0 3.0 0.00 0.00 0.00 50 1013.6
20200712210342 86 12 5.0 7.0 0.00 0.00 0.00 48 1013.7
20200712205841 86 298 0.0 1.0 0.00 0.00 0.00 47 1013.6
20200712205336 86 1 0.0 1.0 0.00 0.00 0.00 47 1013.3
20200712204830 86 345 5.0 6.0 0.00 0.00 0.00 47 1013.6
20200712204326 87 243 1.0 1.0 0.00 0.00 0.00 49 1013.7
20200712203826 87 230 0.0 0.0 0.00 0.00 0.00 47 1013.6
20200712203324 87 323 0.0 1.0 0.00 0.00 0.00 46 1013.7
20200712202818 86 334 2.0 3.0 0.00 0.00 0.00 48 1013.7
20200712202316 86 348 3.0 5.0 0.00 0.00 0.00 49 1013.8
20200712201811 87 9 1.0 2.0 0.00 0.00 0.00 46 1013.7
20200712201308 87 192 1.0 2.0 0.00 0.00 0.00 47 1013.8
20200712200804 86 26 4.0 5.0 0.00 0.00 0.00 49 1013.7
20200712200300 87 357 2.0 6.0 0.00 0.00 0.00 47 1013.9
20200712195755 86 353 3.0 3.0 0.00 0.00 0.00 48 1013.8
20200712195254 86 19 4.0 6.0 0.00 0.00 0.00 48 1013.8
20200712194750 87 11 2.0 2.0 0.00 0.00 0.00 48 1014.0
20200712194246 86 350 2.0 2.0 0.00 0.00 0.00 48 1013.7
20200712193741 86 314 1.0 2.0 0.00 0.00 0.00 48 1013.6
20200712193240 87 357 2.0 2.0 0.00 0.00 0.00 46 1013.8
20200712192738 88 347 1.0 2.0 0.00 0.00 0.00 45 1013.8
20200712192237 87 235 0.0 0.0 0.00 0.00 0.00 48 1013.7
20200712191736 87 234 0.0 0.0 0.00 0.00 0.00 47 1013.7
20200712191231 86 14 4.0 6.0 0.00 0.00 0.00 46 1013.7
20200712190731 87 201 1.0 2.0 0.00 0.00 0.00 45 1013.8
20200712190226 86 17 2.0 2.0 0.00 0.00 0.00 44 1013.6
20200712185723 86 155 1.0 2.0 0.00 0.00 0.00 47 1013.6
20200712185222 85 277 0.0 1.0 0.00 0.00 0.00 48 1014.0
20200712184717 87 108 1.0 1.0 0.00 0.00 0.00 48 1013.8
20200712184216 87 266 0.0 1.0 0.00 0.00 0.00 47 1013.9
20200712183710 87 88 2.0 2.0 0.00 0.00 0.00 45 1014.0
20200712183209 86 342 3.0 5.0 0.00 0.00 0.00 43 1014.0
20200712182703 86 2 3.0 3.0 0.00 0.00 0.00 44 1014.1
20200712182202 86 266 2.0 3.0 0.00 0.00 0.00 45 1014.0
20200712181657 85 239 1.0 1.0 0.00 0.00 0.00 49 1013.9
20200712181151 85 251 1.0 2.0 0.00 0.00 0.00 44 1014.2
20200712180649 85 321 1.0 2.0 0.00 0.00 0.00 45 1014.1
20200712180147 86 343 3.0 5.0 0.00 0.00 0.00 47 1014.2
20200712175643 85 347 2.0 3.0 0.00 0.00 0.00 48 1013.9
20200712175144 85 252 1.0 1.0 0.00 0.00 0.00 46 1013.9
20200712174637 85 37 3.0 3.0 0.00 0.00 0.00 47 1014.2
20200712174135 84 17 3.0 3.0 0.00 0.00 0.00 46 1014.2
20200712173631 85 187 3.0 6.0 0.00 0.00 0.00 46 1014.2
20200712173127 85 258 3.0 3.0 0.00 0.00 0.00 47 1014.2
20200712172626 84 352 3.0 5.0 0.00 0.00 0.00 49 1014.5
20200712172121 85 15 4.0 5.0 0.00 0.00 0.00 49 1014.4
20200712171620 84 10 3.0 3.0 0.00 0.00 0.00 48 1014.4
20200712171116 85 20 5.0 8.0 0.00 0.00 0.00 48 1014.5
20200712170612 84 24 3.0 3.0 0.00 0.00 0.00 50 1014.6
20200712170108 85 262 0.0 1.0 0.00 0.00 0.00 50 1014.6
20200712165607 85 234 1.0 1.0 0.00 0.00 0.00 48 1014.8
20200712165106 84 31 2.0 3.0 0.00 0.00 0.00 49 1014.5
20200712164604 83 257 1.0 2.0 0.00 0.00 0.00 53 1014.6
20200712164102 83 310 1.0 1.0 0.00 0.00 0.00 52 1014.8
20200712163601 83 41 3.0 5.0 0.00 0.00 0.00 52 1014.8
20200712163104 83 10 2.0 3.0 0.00 0.00 0.00 50 1014.9
20200712162558 83 325 2.0 2.0 0.00 0.00 0.00 52 1014.6
20200712162055 82 324 1.0 1.0 0.00 0.00 0.00 53 1014.9
20200712161552 82 356 5.0 5.0 0.00 0.00 0.00 52 1015.0
20200712161048 82 0 3.0 5.0 0.00 0.00 0.00 52 1015.0
20200712160543 82 20 2.0 3.0 0.00 0.00 0.00 52 1014.9
20200712160043 81 227 1.0 1.0 0.00 0.00 0.00 56 1015.0
20200712155542 81 8 2.0 3.0 0.00 0.00 0.00 53 1015.2
20200712155041 81 4 3.0 3.0 0.00 0.00 0.00 55 1015.1
20200712154538 81 31 3.0 3.0 0.00 0.00 0.00 55 1015.0
20200712154037 81 26 3.0 5.0 0.00 0.00 0.00 54 1015.1
20200712153532 80 349 2.0 2.0 0.00 0.00 0.00 56 1015.1
20200712153027 80 2 1.0 2.0 0.00 0.00 0.00 56 1015.1
20200712152521 80 143 2.0 2.0 0.00 0.00 0.00 57 1015.3
20200712152019 80 298 1.0 1.0 0.00 0.00 0.00 57 1015.2
20200712151525 80 354 3.0 3.0 0.00 0.00 0.00 55 1015.2
20200712151014 80 349 1.0 1.0 0.00 0.00 0.00 58 1015.1
20200712150511 79 302 1.0 2.0 0.00 0.00 0.00 59 1015.3
20200712150013 79 254 1.0 2.0 0.00 0.00 0.00 57 1015.2
20200712145511 80 329 3.0 5.0 0.00 0.00 0.00 57 1015.1
20200712145003 78 160 0.0 1.0 0.00 0.00 0.00 59 1015.2
20200712144506 78 341 3.0 3.0 0.00 0.00 0.00 60 1015.1
20200712144002 78 58 2.0 2.0 0.00 0.00 0.00 61 1015.2
20200712143458 77 281 0.0 1.0 0.00 0.00 0.00 61 1015.2
20200712142954 77 254 0.0 1.0 0.00 0.00 0.00 62 1015.2